Weather reports worldwide

Advertisment
Hereford/Credenhill, United Kingdom (3522): temperature & dewpoint: 18.06.2017 23:00:00 - 24.06.2017 23:00:00 (BST)Hereford/Credenhill, United Kingdom (3522): temperature 5cm: 18.06.2017 23:00:00 - 24.06.2017 23:00:00 (BST)Hereford/Credenhill, United Kingdom (3522): temperature -20cm & temperature -100cm: 18.06.2017 23:00:00 - 24.06.2017 23:00:00 (BST)Hereford/Credenhill, United Kingdom (3522): wind speed: 18.06.2017 23:00:00 - 24.06.2017 23:00:00 (BST)Hereford/Credenhill, United Kingdom (3522): wind direction: 18.06.2017 23:00:00 - 24.06.2017 23:00:00 (BST)Hereford/Credenhill, United Kingdom (3522): reduced air pressure: 18.06.2017 23:00:00 - 24.06.2017 23:00:00 (BST)Hereford/Credenhill, United Kingdom (3522): visibility: 18.06.2017 23:00:00 - 24.06.2017 23:00:00 (BST)Hereford/Credenhill, United Kingdom (3522): precipitation: 18.06.2017 23:00:00 - 24.06.2017 23:00:00 (BST)
Date & Time tt [°C] td [°C] tt 5cm [°C] tt -20cm [°C] tt -100cm [°C] ff [km/h] ff [kn] dd ppp [hPa] vv [km] rr [mm]
24.06.2017 23:00:00 14,4 11,7 - - - 8 4 WSW 1012,9 17 0,0
24.06.2017 22:00:00 15,0 12,1 - - - 11 6 W 1012,9 17 0,0
24.06.2017 21:00:00 16,7 12,3 - - - 15 8 W 1012,4 19 0,0
24.06.2017 20:00:00 19,0 12,8 - - - 9 5 WSW 1012,0 18 0,0
24.06.2017 19:00:00 18,4 12,9 - - - 13 7 W 1012,2 25 0,0
24.06.2017 18:00:00 20,7 13,6 - - - 13 7 WSW 1012,0 28 0,0
24.06.2017 17:00:00 21,6 13,7 - - - 21 11 W 1012,3 24 0,0
24.06.2017 16:00:00 19,7 13,5 - - - 13 7 W 1012,8 25 0,0
24.06.2017 15:00:00 20,6 13,4 - - - 16 9 W 1013,0 18 0,0
24.06.2017 14:00:00 20,9 13,7 - - - 15 8 W 1013,1 23 0,0
24.06.2017 13:00:00 20,8 13,8 - - - 11 6 W 1013,3 24 0,0
24.06.2017 12:00:00 19,8 13,8 - - - 9 5 WSW 1013,4 23 0,0
24.06.2017 11:00:00 18,9 13,2 - - - 11 6 W 1013,7 22 0,0
24.06.2017 10:00:00 19,1 13,1 - 17,0 13,9 13 7 W 1013,4 21 0,0
24.06.2017 09:00:00 19,1 13,8 - - - 16 9 W 1013,7 22 0,0
24.06.2017 08:00:00 17,7 13,0 - - - 18 10 W 1013,8 20 0,0
24.06.2017 07:00:00 16,9 13,9 - - - 8 4 WSW 1013,6 22 0,0
24.06.2017 06:00:00 15,0 13,4 - - - 8 4 WSW 1013,6 18 0,0
24.06.2017 05:00:00 15,9 13,4 - - - 21 11 W 1013,7 20 0,0
24.06.2017 04:00:00 16,4 13,7 - - - 18 10 W 1013,9 19 0,0
24.06.2017 03:00:00 16,6 14,0 - - - 9 5 WSW 1014,2 28 0,0
24.06.2017 02:00:00 17,0 13,8 - - - 16 9 W 1014,0 27 0,0
24.06.2017 01:00:00 17,3 13,7 - - - 13 7 W 1014,3 24 0,0
24.06.2017 00:00:00 17,3 13,7 - - - 5 3 SW 1014,6 27 0,0
23.06.2017 23:00:00 16,7 13,6 - - - 2 1 S 1014,6 29 0,0
23.06.2017 22:00:00 16,9 13,5 - - - 4 2 SW 1014,8 27 0,0
23.06.2017 21:00:00 17,2 13,6 - - - 4 2 SW 1015,0 23 0,0
23.06.2017 20:00:00 17,5 13,7 - - - 4 2 SW 1015,2 28 0,0
23.06.2017 19:00:00 17,5 13,5 - - - 4 2 SW 1015,2 29 0,0
23.06.2017 18:00:00 17,9 13,2 - - - 15 8 WSW 1015,4 24 0,0
23.06.2017 17:00:00 17,9 13,7 - - - 5 3 WSW 1015,5 25 0,0
23.06.2017 16:00:00 17,7 13,8 - - - 5 3 WSW 1015,7 21 0,0
23.06.2017 15:00:00 18,0 13,4 - - - 8 4 WSW 1015,6 23 0,0
23.06.2017 14:00:00 18,1 13,5 - - - 8 4 SW 1015,4 24 0,0
23.06.2017 13:00:00 17,6 13,1 - - - 9 5 WSW 1015,7 24 0,0
23.06.2017 12:00:00 18,7 13,0 - - - 22 12 W 1015,6 22 0,0
23.06.2017 11:00:00 18,5 13,2 - - - 13 7 WSW 1015,5 23 0,0
23.06.2017 10:00:00 17,3 12,6 - 17,4 13,7 16 9 WSW 1015,4 21 0,0
23.06.2017 09:00:00 16,2 11,5 - - - 18 10 W 1015,6 22 0,0
23.06.2017 08:00:00 16,1 11,5 - - - 16 9 W 1015,1 25 0,0
23.06.2017 07:00:00 15,5 10,6 - - - 15 8 WSW 1014,8 24 0,0
23.06.2017 06:00:00 14,9 10,3 - - - 13 7 WSW 1014,9 27 0,0
23.06.2017 05:00:00 13,9 10,0 - - - 8 4 WSW 1015,2 23 0,0
23.06.2017 04:00:00 13,9 10,7 - - - 9 5 WSW 1015,2 21 0,0
23.06.2017 03:00:00 12,5 10,1 - - - 8 4 WSW 1015,3 20 0,0
23.06.2017 02:00:00 12,6 9,7 - - - 11 6 WSW 1015,3 19 0,0
23.06.2017 01:00:00 13,3 9,9 - - - 8 4 SW 1015,6 12 0,0
23.06.2017 00:00:00 13,2 10,5 - - - 5 3 SW 1015,5 20 0,0
22.06.2017 23:00:00 14,8 11,5 - - - 15 8 W 1015,4 20 0,0
22.06.2017 22:00:00 15,3 12,5 - - - 5 3 WSW 1014,5 20 0,0
22.06.2017 21:00:00 16,1 12,1 - - - 5 3 SW 1014,2 19 0,0
22.06.2017 20:00:00 19,7 12,8 - - - 9 5 W 1014,3 21 0,0
22.06.2017 19:00:00 18,4 12,7 - - - 15 8 W 1014,2 21 0,0
22.06.2017 18:00:00 20,2 13,4 - - - 15 8 W 1013,6 23 0,0
22.06.2017 17:00:00 18,9 13,0 - - - 13 7 W 1013,8 19 0,0
22.06.2017 16:00:00 18,7 13,2 - - - 16 9 W 1013,6 23 0,0
22.06.2017 15:00:00 20,1 14,3 - - - 15 8 WNW 1012,8 23 0,0
22.06.2017 14:00:00 20,6 15,0 - - - 13 7 W 1012,4 25 0,0
22.06.2017 13:00:00 18,4 15,0 - - - 16 9 W 1012,3 19 0,0
22.06.2017 12:00:00 18,1 15,0 - - - 18 10 W 1012,0 19 0,0
22.06.2017 11:00:00 18,8 15,0 - - - 13 7 W 1011,6 19 0,0
22.06.2017 10:00:00 18,2 14,1 - 18,2 13,7 9 5 WNW 1011,3 20 0,0
22.06.2017 09:00:00 18,1 13,8 - - - 8 4 W 1011,1 26 0,0
22.06.2017 08:00:00 17,1 13,2 - - - 11 6 WSW 1011,1 27 0,0
22.06.2017 07:00:00 16,5 13,4 - - - 15 8 WSW 1011,2 23 0,0
22.06.2017 06:00:00 16,1 13,6 - - - 13 7 W 1011,1 15 0,0
22.06.2017 05:00:00 16,2 13,9 - - - 11 6 W 1010,8 14 0,0
22.06.2017 04:00:00 16,7 14,9 - - - 9 5 W 1010,6 11 0,0
22.06.2017 03:00:00 16,8 15,2 - - - 2 1 WSW 1010,7 8 0,0
22.06.2017 02:00:00 18,0 16,2 - - - 9 5 WNW 1010,7 7 0,0
22.06.2017 01:00:00 19,5 16,9 - - - 8 4 WNW 1010,7 10 0,0
22.06.2017 00:00:00 19,6 17,8 - - - 4 2 W 1010,9 9 0,0
21.06.2017 23:00:00 21,2 17,7 - - - 2 1 SW 1011,0 10 0,0
21.06.2017 22:00:00 23,9 19,7 - - - 8 4 W 1010,7 10 0,0
21.06.2017 21:00:00 26,3 20,5 - - - 5 3 WSW 1010,5 12 0,0
21.06.2017 20:00:00 27,4 20,9 - - - 2 1 SW 1010,5 13 0,0
21.06.2017 19:00:00 28,5 20,5 - - - 4 2 SSE 1010,7 13 0,0
21.06.2017 18:00:00 29,8 21,1 - - - 4 2 S 1010,9 15 0,0
21.06.2017 17:00:00 29,2 20,4 - - - 5 3 SE 1011,5 15 0,0
21.06.2017 16:00:00 28,9 19,9 - - - 5 3 SSE 1012,2 15 0,0
21.06.2017 15:00:00 28,0 18,3 - - - 9 5 ESE 1012,8 14 0,0
21.06.2017 14:00:00 27,9 19,2 - - - 5 3 E 1013,5 14 0,0
21.06.2017 13:00:00 26,0 18,6 - - - 11 6 ENE 1014,1 12 0,0
21.06.2017 12:00:00 24,5 18,2 - - - 5 3 ENE 1014,9 11 0,0
21.06.2017 11:00:00 22,3 17,3 - - - 5 3 ENE 1015,4 10 0,0
21.06.2017 10:00:00 19,6 17,0 21,8 17,7 13,5 5 3 E 1016,1 8 0,0
21.06.2017 09:00:00 17,5 16,1 - - - 8 4 NNE 1016,4 6 0,0
21.06.2017 08:00:00 16,9 16,1 - - - 8 4 E 1016,7 4,7 0,0
21.06.2017 07:00:00 16,5 15,9 - - - 8 4 NE 1017,0 3,8 0,0
21.06.2017 06:00:00 15,9 15,8 - - - 2 1 E 1017,5 4,1 0,0
21.06.2017 05:00:00 15,3 14,8 - - - 2 1 SSW 1017,5 2,5 0,0
21.06.2017 04:00:00 16,4 15,6 - - - 5 3 NNE 1017,3 6 0,0
21.06.2017 03:00:00 16,2 15,5 - - - 9 5 ENE 1016,7 4,4 0,0
21.06.2017 02:00:00 17,2 15,9 - - - 5 3 NE 1017,7 4,3 0,0
21.06.2017 01:00:00 18,4 16,5 - - - 9 5 NE 1018,4 5 0,0
21.06.2017 00:00:00 19,0 17,1 - - - 9 5 ENE 1018,1 6 0,0
20.06.2017 23:00:00 20,3 17,6 - - - 8 4 NE 1018,3 6 0,0
20.06.2017 22:00:00 21,7 18,0 - - - 11 6 ENE 1018,1 7 0,0
20.06.2017 21:00:00 23,3 18,6 - - - 13 7 ENE 1017,6 8 0,0
20.06.2017 20:00:00 24,6 19,1 - - - 13 7 ENE 1017,2 8 0,0
20.06.2017 19:00:00 26,2 19,5 - - - 15 8 ENE 1016,8 9 0,0
20.06.2017 18:00:00 27,6 19,4 - - - 13 7 ENE 1016,7 11 0,0
20.06.2017 17:00:00 27,9 19,5 - - - 11 6 ENE 1017,3 12 0,0
20.06.2017 16:00:00 28,2 18,7 - - - 9 5 ENE 1017,7 13 0,0
20.06.2017 15:00:00 27,6 18,4 - - - 11 6 ENE 1018,0 11 0,0
20.06.2017 14:00:00 27,2 19,2 - - - 8 4 NE 1018,2 12 0,0
20.06.2017 13:00:00 26,0 18,8 - - - 11 6 ENE 1018,8 11 0,0
20.06.2017 12:00:00 24,1 17,7 - - - 9 5 NNE 1019,1 12 0,0
20.06.2017 11:00:00 23,6 18,3 - - - 8 4 NE 1019,2 14 0,0
20.06.2017 10:00:00 21,8 16,3 23,4 17,2 13,2 9 5 NNE 1019,5 17 0,0
20.06.2017 09:00:00 21,4 16,7 - - - 9 5 NE 1019,2 20 0,0
20.06.2017 08:00:00 20,2 15,1 - - - 5 3 NNE 1019,0 24 0,0
20.06.2017 07:00:00 17,8 15,3 - - - 2 1 W 1019,0 19 0,0
20.06.2017 06:00:00 16,3 14,0 - - - 5 3 W 1018,8 20 0,0
20.06.2017 05:00:00 18,0 14,0 - - - 5 3 NNW 1018,6 22 0,0
20.06.2017 04:00:00 18,0 14,0 - - - 5 3 NW 1018,9 24 0,0
20.06.2017 03:00:00 18,0 13,8 - - - 8 4 WNW 1018,8 26 0,0
20.06.2017 02:00:00 19,1 13,3 - - - 9 5 NW 1018,8 27 0,0
20.06.2017 01:00:00 18,6 13,3 - - - 4 2 W 1018,9 24 0,0
20.06.2017 00:00:00 20,4 14,2 - - - 4 2 WNW 1019,1 30 0,0
19.06.2017 23:00:00 21,7 15,4 - - - 4 2 N 1018,7 19 0,0
19.06.2017 22:00:00 23,4 16,4 - - - 13 7 NNE 1018,0 24 0,0
19.06.2017 21:00:00 24,9 18,4 - - - 4 2 NW 1017,5 23 0,0
19.06.2017 20:00:00 28,3 16,4 - - - 5 3 NNW 1017,2 22 0,0
19.06.2017 19:00:00 29,5 15,1 - - - 2 1 S 1017,1 23 0,0
19.06.2017 18:00:00 29,6 16,8 - - - 5 3 E 1017,3 27 0,0
19.06.2017 17:00:00 29,9 17,2 - - - 5 3 ENE 1017,5 24 0,0
19.06.2017 16:00:00 30,3 16,8 - - - 2 1 W 1017,9 25 0,0
19.06.2017 15:00:00 29,0 17,2 - - - 5 3 ENE 1018,3 23 0,0
19.06.2017 14:00:00 29,4 17,6 - - - 5 3 E 1018,6 23 0,0
19.06.2017 13:00:00 29,0 17,9 - - - 2 1 NE 1019,2 22 0,0
19.06.2017 12:00:00 27,3 17,6 - - - 5 3 E 1019,7 23 0,0
19.06.2017 11:00:00 26,2 18,1 - - - 4 2 WSW 1020,0 23 0,0
19.06.2017 10:00:00 23,9 18,0 23,9 16,7 13,2 4 2 SSE 1020,3 20 0,0
19.06.2017 09:00:00 22,1 16,4 - - - 2 1 SE 1020,7 21 0,0
19.06.2017 08:00:00 19,4 17,5 - - - 4 2 SSW 1020,9 20 0,0
19.06.2017 07:00:00 16,3 16,0 - - - 4 2 SW 1020,9 10 0,0
19.06.2017 06:00:00 14,8 14,7 - - - 0 0 N 1021,0 9 0,0
19.06.2017 05:00:00 14,6 14,4 - - - 2 1 WSW 1021,2 8 0,0
19.06.2017 04:00:00 15,2 15,0 - - - 4 2 W 1021,3 14 0,0
19.06.2017 03:00:00 15,6 15,3 - - - 4 2 WSW 1021,6 9 0,0
19.06.2017 02:00:00 16,3 15,9 - - - 4 2 WSW 1021,7 14 0,0
19.06.2017 01:00:00 16,2 15,6 - - - 2 1 E 1021,8 14 0,0
19.06.2017 00:00:00 17,2 15,8 - - - 2 1 WNW 1021,9 14 0,0
18.06.2017 23:00:00 18,7 16,6 - - - 2 1 W 1021,8 18 0,0

tt = temperature
td = dewpoint
tt 5cm = temperature 5cm
tt -20cm = temperature -20cm
tt -100cm = temperature -100cm
ff = wind speed
dd = wind direction
ppp = reduced air pressure
vv = visibility
rr = precipitation

Next stations